Year,Month,Day,Hour,Minute,Value (Times are PST for temperature in C)
2015,04,22,00,00,6.90
2015,04,22,00,01,6.90
2015,04,22,00,02,6.90
2015,04,22,00,03,6.80
2015,04,22,00,04,6.80
2015,04,22,00,05,6.80
2015,04,22,00,06,6.80
2015,04,22,00,07,6.70
2015,04,22,00,08,6.70
2015,04,22,00,09,6.70
2015,04,22,00,10,6.70
2015,04,22,00,11,6.70
2015,04,22,00,12,6.70
2015,04,22,00,13,6.70
2015,04,22,00,14,6.70
2015,04,22,00,15,6.70
2015,04,22,00,16,6.70
2015,04,22,00,17,6.70
2015,04,22,00,18,6.70
2015,04,22,00,19,6.70
2015,04,22,00,20,6.70
2015,04,22,00,21,6.70
2015,04,22,00,22,6.80
2015,04,22,00,23,6.80
2015,04,22,00,24,6.80
2015,04,22,00,25,6.80
2015,04,22,00,26,6.80
2015,04,22,00,27,6.90
2015,04,22,00,28,6.90
2015,04,22,00,29,6.90
2015,04,22,00,30,7.00
2015,04,22,00,31,7.00
2015,04,22,00,32,7.00
2015,04,22,00,33,7.10
2015,04,22,00,34,7.10
2015,04,22,00,35,7.10
2015,04,22,00,36,7.10
2015,04,22,00,37,7.10
2015,04,22,00,38,7.10
2015,04,22,00,39,7.10
2015,04,22,00,40,7.10
2015,04,22,00,41,7.10
2015,04,22,00,42,7.10
2015,04,22,00,43,7.10
2015,04,22,00,44,7.20
2015,04,22,00,45,7.20
2015,04,22,00,46,7.20
2015,04,22,00,47,7.20
2015,04,22,00,48,7.20
2015,04,22,00,49,7.20
2015,04,22,00,50,7.20
2015,04,22,00,51,7.20
2015,04,22,00,52,7.20
2015,04,22,00,53,7.20
2015,04,22,00,54,7.20
2015,04,22,00,55,7.20
2015,04,22,00,56,7.20
2015,04,22,00,57,7.20
2015,04,22,00,58,7.20
2015,04,22,00,59,7.20
2015,04,22,01,00,7.20
2015,04,22,01,01,7.20
2015,04,22,01,02,7.20
2015,04,22,01,03,7.20
2015,04,22,01,04,7.20
2015,04,22,01,05,7.20
2015,04,22,01,06,7.20
2015,04,22,01,07,7.20
2015,04,22,01,08,7.20
2015,04,22,01,09,7.20
2015,04,22,01,10,7.20
2015,04,22,01,11,7.20
2015,04,22,01,12,7.20
2015,04,22,01,13,7.20
2015,04,22,01,14,7.20
2015,04,22,01,15,7.20
2015,04,22,01,16,7.20
2015,04,22,01,17,7.20
2015,04,22,01,18,7.20
2015,04,22,01,19,7.20
2015,04,22,01,20,7.20
2015,04,22,01,21,7.20
2015,04,22,01,22,7.20
2015,04,22,01,23,7.20
2015,04,22,01,24,7.20
2015,04,22,01,25,7.20
2015,04,22,01,26,7.20
2015,04,22,01,27,7.20
2015,04,22,01,28,7.20
2015,04,22,01,29,7.20
2015,04,22,01,30,7.20
2015,04,22,01,31,7.20
2015,04,22,01,32,7.20
2015,04,22,01,33,7.20
2015,04,22,01,34,7.20
2015,04,22,01,35,7.20
2015,04,22,01,36,7.20
2015,04,22,01,37,7.20
2015,04,22,01,38,7.20
2015,04,22,01,39,7.20
2015,04,22,01,40,7.10
2015,04,22,01,41,7.10
2015,04,22,01,42,7.10
2015,04,22,01,43,7.10
2015,04,22,01,44,7.10
2015,04,22,01,45,7.10
2015,04,22,01,46,7.10
2015,04,22,01,47,7.00
2015,04,22,01,48,7.00
2015,04,22,01,49,7.00
2015,04,22,01,50,6.90
2015,04,22,01,51,6.90
2015,04,22,01,52,6.90
2015,04,22,01,53,6.80
2015,04,22,01,54,6.80
2015,04,22,01,55,6.80
2015,04,22,01,56,6.70
2015,04,22,01,57,6.70
2015,04,22,01,58,6.70
2015,04,22,01,59,6.70
2015,04,22,02,00,6.60
2015,04,22,02,01,6.60
2015,04,22,02,02,6.60
2015,04,22,02,03,6.60
2015,04,22,02,04,6.50
2015,04,22,02,05,6.50
2015,04,22,02,06,6.50
2015,04,22,02,07,6.40
2015,04,22,02,08,6.40
2015,04,22,02,09,6.40
2015,04,22,02,10,6.30
2015,04,22,02,11,6.30
2015,04,22,02,12,6.30
2015,04,22,02,13,6.30
2015,04,22,02,14,6.30
2015,04,22,02,15,6.30
2015,04,22,02,16,6.30
2015,04,22,02,17,6.30
2015,04,22,02,18,6.20
2015,04,22,02,19,6.20
2015,04,22,02,20,6.10
2015,04,22,02,21,6.10
2015,04,22,02,22,6.10
2015,04,22,02,23,6.00
2015,04,22,02,24,6.00
2015,04,22,02,25,5.90
2015,04,22,02,26,5.90
2015,04,22,02,27,5.80
2015,04,22,02,28,5.80
2015,04,22,02,29,5.80
2015,04,22,02,30,5.70
2015,04,22,02,31,5.70
2015,04,22,02,32,5.60
2015,04,22,02,33,5.60
2015,04,22,02,34,5.50
2015,04,22,02,35,5.40
2015,04,22,02,36,5.40
2015,04,22,02,37,5.30
2015,04,22,02,38,5.30
2015,04,22,02,39,5.20
2015,04,22,02,40,5.20
2015,04,22,02,41,5.10
2015,04,22,02,42,5.10
2015,04,22,02,43,5.10
2015,04,22,02,44,5.00
2015,04,22,02,45,4.90
2015,04,22,02,46,4.90
2015,04,22,02,47,4.90
2015,04,22,02,48,4.80
2015,04,22,02,49,4.80
2015,04,22,02,50,4.80
2015,04,22,02,51,4.80
2015,04,22,02,52,4.80
2015,04,22,02,53,4.70
2015,04,22,02,54,4.70
2015,04,22,02,55,4.70
2015,04,22,02,56,4.60
2015,04,22,02,57,4.60
2015,04,22,02,58,4.60
2015,04,22,02,59,4.50
2015,04,22,03,00,4.50
2015,04,22,03,01,4.50
2015,04,22,03,02,4.40
2015,04,22,03,03,4.40
2015,04,22,03,04,4.30
2015,04,22,03,05,4.30
2015,04,22,03,06,4.30
2015,04,22,03,07,4.20
2015,04,22,03,08,4.20
2015,04,22,03,09,4.20
2015,04,22,03,10,4.20
2015,04,22,03,11,4.20
2015,04,22,03,12,4.10
2015,04,22,03,13,4.10
2015,04,22,03,14,4.10
2015,04,22,03,15,4.10
2015,04,22,03,16,4.10
2015,04,22,03,17,4.10
2015,04,22,03,18,4.00
2015,04,22,03,19,4.00
2015,04,22,03,20,4.00
2015,04,22,03,21,4.00
2015,04,22,03,22,3.90
2015,04,22,03,23,3.90
2015,04,22,03,24,3.90
2015,04,22,03,25,3.90
2015,04,22,03,26,3.80
2015,04,22,03,27,3.80
2015,04,22,03,28,3.80
2015,04,22,03,29,3.80
2015,04,22,03,30,3.80
2015,04,22,03,31,3.80
2015,04,22,03,32,3.70
2015,04,22,03,33,3.70
2015,04,22,03,34,3.70
2015,04,22,03,35,3.70
2015,04,22,03,36,3.70
2015,04,22,03,37,3.70
2015,04,22,03,38,3.60
2015,04,22,03,39,3.60
2015,04,22,03,40,3.60
2015,04,22,03,41,3.60
2015,04,22,03,42,3.60
2015,04,22,03,43,3.60
2015,04,22,03,44,3.60
2015,04,22,03,45,3.60
2015,04,22,03,46,3.60
2015,04,22,03,47,3.50
2015,04,22,03,48,3.50
2015,04,22,03,49,3.50
2015,04,22,03,50,3.40
2015,04,22,03,51,3.40
2015,04,22,03,52,3.40
2015,04,22,03,53,3.40
2015,04,22,03,54,3.40
2015,04,22,03,55,3.30
2015,04,22,03,56,3.30
2015,04,22,03,57,3.30
2015,04,22,03,58,3.30
2015,04,22,03,59,3.30
2015,04,22,04,00,3.30
2015,04,22,04,01,3.30
2015,04,22,04,02,3.30
2015,04,22,04,03,3.20
2015,04,22,04,04,3.20
2015,04,22,04,05,3.20
2015,04,22,04,06,3.20
2015,04,22,04,07,3.20
2015,04,22,04,08,3.20
2015,04,22,04,09,3.10
2015,04,22,04,10,3.10
2015,04,22,04,11,3.10
2015,04,22,04,12,3.10
2015,04,22,04,13,3.10
2015,04,22,04,14,3.10
2015,04,22,04,15,3.00
2015,04,22,04,16,3.00
2015,04,22,04,17,3.00
2015,04,22,04,18,3.00
2015,04,22,04,19,3.00
2015,04,22,04,20,3.00
2015,04,22,04,21,3.00
2015,04,22,04,22,2.90
2015,04,22,04,23,2.90
2015,04,22,04,24,2.90
2015,04,22,04,25,2.90
2015,04,22,04,26,2.90
2015,04,22,04,27,2.90
2015,04,22,04,28,2.90
2015,04,22,04,29,3.00
2015,04,22,04,30,3.10
2015,04,22,04,31,3.10
2015,04,22,04,32,3.20
2015,04,22,04,33,3.30
2015,04,22,04,34,3.30
2015,04,22,04,35,3.40
2015,04,22,04,36,3.40
2015,04,22,04,37,3.40
2015,04,22,04,38,3.40
2015,04,22,04,39,3.50
2015,04,22,04,40,3.50
2015,04,22,04,41,3.50
2015,04,22,04,42,3.60
2015,04,22,04,43,3.60
2015,04,22,04,44,3.60
2015,04,22,04,45,3.60
2015,04,22,04,46,3.60
2015,04,22,04,47,3.60
2015,04,22,04,48,3.60
2015,04,22,04,49,3.60
2015,04,22,04,50,3.70
2015,04,22,04,51,3.70
2015,04,22,04,52,3.80
2015,04,22,04,53,3.90
2015,04,22,04,54,4.00
2015,04,22,04,55,4.10
2015,04,22,04,56,4.10
2015,04,22,04,57,4.20
2015,04,22,04,58,4.20
2015,04,22,04,59,4.30
2015,04,22,05,00,4.30
2015,04,22,05,01,4.40
2015,04,22,05,02,4.40
2015,04,22,05,03,4.50
2015,04,22,05,04,4.50
2015,04,22,05,05,4.40
2015,04,22,05,06,4.40
2015,04,22,05,07,4.30
2015,04,22,05,08,4.20
2015,04,22,05,09,4.10
2015,04,22,05,10,4.10
2015,04,22,05,11,4.00
2015,04,22,05,12,3.90
2015,04,22,05,13,3.80
2015,04,22,05,14,3.80
2015,04,22,05,15,3.70
2015,04,22,05,16,3.60
2015,04,22,05,17,3.60
2015,04,22,05,18,3.50
2015,04,22,05,19,3.50
2015,04,22,05,20,3.50
2015,04,22,05,21,3.40
2015,04,22,05,22,3.40
2015,04,22,05,23,3.30
2015,04,22,05,24,3.30
2015,04,22,05,25,3.30
2015,04,22,05,26,3.30
2015,04,22,05,27,3.30
2015,04,22,05,28,3.30
2015,04,22,05,29,3.30
2015,04,22,05,30,3.30
2015,04,22,05,31,3.30
2015,04,22,05,32,3.30
2015,04,22,05,33,3.30
2015,04,22,05,34,3.30
2015,04,22,05,35,3.30
2015,04,22,05,36,3.20
2015,04,22,05,37,3.20
2015,04,22,05,38,3.20
2015,04,22,05,39,3.10
2015,04,22,05,40,3.10
2015,04,22,05,41,3.10
2015,04,22,05,42,3.10
2015,04,22,05,43,3.00
2015,04,22,05,44,3.00
2015,04,22,05,45,3.00
2015,04,22,05,46,2.90
2015,04,22,05,47,2.90
2015,04,22,05,48,2.90
2015,04,22,05,49,2.90
2015,04,22,05,50,2.90
2015,04,22,05,51,2.90
2015,04,22,05,52,2.80
2015,04,22,05,53,2.80
2015,04,22,05,54,2.80
2015,04,22,05,55,2.80
2015,04,22,05,56,2.80
2015,04,22,05,57,2.80
2015,04,22,05,58,2.80
2015,04,22,05,59,2.80
2015,04,22,06,00,2.80
2015,04,22,06,01,2.80
2015,04,22,06,02,2.80
2015,04,22,06,03,2.80
2015,04,22,06,04,2.80
2015,04,22,06,05,2.70
2015,04,22,06,06,2.70
2015,04,22,06,07,2.70
2015,04,22,06,08,2.70
2015,04,22,06,09,2.70
2015,04,22,06,10,2.70
2015,04,22,06,11,2.70
2015,04,22,06,12,2.70
2015,04,22,06,13,2.70
2015,04,22,06,14,2.70
2015,04,22,06,15,2.70
2015,04,22,06,16,2.70
2015,04,22,06,17,2.80
2015,04,22,06,18,2.80
2015,04,22,06,19,2.80
2015,04,22,06,20,2.80
2015,04,22,06,21,2.80
2015,04,22,06,22,2.80
2015,04,22,06,23,2.80
2015,04,22,06,24,2.80
2015,04,22,06,25,2.80
2015,04,22,06,26,2.90
2015,04,22,06,27,2.90
2015,04,22,06,28,2.90
2015,04,22,06,29,2.90
2015,04,22,06,30,3.00
2015,04,22,06,31,3.10
2015,04,22,06,32,3.10
2015,04,22,06,33,3.10
2015,04,22,06,34,3.10
2015,04,22,06,35,3.20
2015,04,22,06,36,3.20
2015,04,22,06,37,3.20
2015,04,22,06,38,3.30
2015,04,22,06,39,3.30
2015,04,22,06,40,3.20
2015,04,22,06,41,3.20
2015,04,22,06,42,3.20
2015,04,22,06,43,3.20
2015,04,22,06,44,3.20
2015,04,22,06,45,3.20
2015,04,22,06,46,3.20
2015,04,22,06,47,3.20
2015,04,22,06,48,3.30
2015,04,22,06,49,3.30
2015,04,22,06,50,3.30
2015,04,22,06,51,3.30
2015,04,22,06,52,3.30
2015,04,22,06,53,3.30
2015,04,22,06,54,3.30
2015,04,22,06,55,3.30
2015,04,22,06,56,3.30
2015,04,22,06,57,3.30
2015,04,22,06,58,3.30
2015,04,22,06,59,3.40
2015,04,22,07,00,3.40
2015,04,22,07,01,3.50
2015,04,22,07,02,3.60
2015,04,22,07,03,3.70
2015,04,22,07,04,3.70
2015,04,22,07,05,3.80
2015,04,22,07,06,3.80
2015,04,22,07,07,3.90
2015,04,22,07,08,3.90
2015,04,22,07,09,3.90
2015,04,22,07,10,4.00
2015,04,22,07,11,4.10
2015,04,22,07,12,4.20
2015,04,22,07,13,4.30
2015,04,22,07,14,4.30
2015,04,22,07,15,4.40
2015,04,22,07,16,4.50
2015,04,22,07,17,4.60
2015,04,22,07,18,4.70
2015,04,22,07,19,4.80
2015,04,22,07,20,4.90
2015,04,22,07,21,5.00
2015,04,22,07,22,5.10
2015,04,22,07,23,5.30
2015,04,22,07,24,5.40
2015,04,22,07,25,5.50
2015,04,22,07,26,5.60
2015,04,22,07,27,5.70
2015,04,22,07,28,5.80
2015,04,22,07,29,5.90
2015,04,22,07,30,6.00
2015,04,22,07,31,6.10
2015,04,22,07,32,6.20
2015,04,22,07,33,6.30
2015,04,22,07,34,6.40
2015,04,22,07,35,6.50
2015,04,22,07,36,6.50
2015,04,22,07,37,6.50
2015,04,22,07,38,6.60
2015,04,22,07,39,6.60
2015,04,22,07,40,6.60
2015,04,22,07,41,6.60
2015,04,22,07,42,6.60
2015,04,22,07,43,6.60
2015,04,22,07,44,6.60
2015,04,22,07,45,6.70
2015,04,22,07,46,6.70
2015,04,22,07,47,6.70
2015,04,22,07,48,6.70
2015,04,22,07,49,6.80
2015,04,22,07,50,6.80
2015,04,22,07,51,6.80
2015,04,22,07,52,6.80
2015,04,22,07,53,6.90
2015,04,22,07,54,6.90
2015,04,22,07,55,7.00
2015,04,22,07,56,7.00
2015,04,22,07,57,7.10
2015,04,22,07,58,7.20
2015,04,22,07,59,7.20
2015,04,22,08,00,7.20
2015,04,22,08,01,7.30
2015,04,22,08,02,7.30
2015,04,22,08,03,7.30
2015,04,22,08,04,7.30
2015,04,22,08,05,7.40
2015,04,22,08,06,7.40
2015,04,22,08,07,7.40
2015,04,22,08,08,7.40
2015,04,22,08,09,7.40
2015,04,22,08,10,7.40
2015,04,22,08,11,7.40
2015,04,22,08,12,7.50
2015,04,22,08,13,7.60
2015,04,22,08,14,7.70
2015,04,22,08,15,7.80
2015,04,22,08,16,7.90
2015,04,22,08,17,8.00
2015,04,22,08,18,8.20
2015,04,22,08,19,8.20
2015,04,22,08,20,8.30
2015,04,22,08,21,8.40
2015,04,22,08,22,8.50
2015,04,22,08,23,8.60
2015,04,22,08,24,8.70
2015,04,22,08,25,8.80
2015,04,22,08,26,8.80
2015,04,22,08,27,8.90
2015,04,22,08,28,8.90
2015,04,22,08,29,8.90
2015,04,22,08,30,8.90
2015,04,22,08,31,8.90
2015,04,22,08,32,8.90
2015,04,22,08,33,8.90
2015,04,22,08,34,8.90
2015,04,22,08,35,8.90
2015,04,22,08,36,8.90
2015,04,22,08,37,8.90
2015,04,22,08,38,8.90
2015,04,22,08,39,9.00
2015,04,22,08,40,9.00
2015,04,22,08,41,9.00
2015,04,22,08,42,9.10
2015,04,22,08,43,9.20
2015,04,22,08,44,9.20
2015,04,22,08,45,9.30
2015,04,22,08,46,9.30
2015,04,22,08,47,9.40
2015,04,22,08,48,9.40
2015,04,22,08,49,9.50
2015,04,22,08,50,9.60
2015,04,22,08,51,9.60
2015,04,22,08,52,9.60
2015,04,22,08,53,9.60
2015,04,22,08,54,9.70
2015,04,22,08,55,9.70
2015,04,22,08,56,9.80
2015,04,22,08,57,9.80
2015,04,22,08,58,9.80
2015,04,22,08,59,9.90
2015,04,22,09,00,10.00
2015,04,22,09,01,10.00
2015,04,22,09,02,10.10
2015,04,22,09,03,10.20
2015,04,22,09,04,10.20
2015,04,22,09,05,10.30
2015,04,22,09,06,10.30
2015,04,22,09,07,10.40
2015,04,22,09,08,10.40
2015,04,22,09,09,10.40
2015,04,22,09,10,10.40
2015,04,22,09,11,10.40
2015,04,22,09,12,10.50
2015,04,22,09,13,10.50
2015,04,22,09,14,10.60
2015,04,22,09,15,10.60
2015,04,22,09,16,10.70
2015,04,22,09,17,10.60
2015,04,22,09,18,10.50
2015,04,22,09,19,10.50
2015,04,22,09,20,10.40
2015,04,22,09,21,10.40
2015,04,22,09,22,10.30
2015,04,22,09,23,10.30
2015,04,22,09,24,10.30
2015,04,22,09,25,10.20
2015,04,22,09,26,10.20
2015,04,22,09,27,10.20
2015,04,22,09,28,10.20
2015,04,22,09,29,10.30
2015,04,22,09,30,10.30
2015,04,22,09,31,10.30
2015,04,22,09,32,10.30
2015,04,22,09,33,10.30
2015,04,22,09,34,10.40
2015,04,22,09,35,10.40
2015,04,22,09,36,10.50
2015,04,22,09,37,10.50
2015,04,22,09,38,10.40
2015,04,22,09,39,10.40
2015,04,22,09,40,10.30
2015,04,22,09,41,10.10
2015,04,22,09,42,10.00
2015,04,22,09,43,10.00
2015,04,22,09,44,9.90
2015,04,22,09,45,9.80
2015,04,22,09,46,9.80
2015,04,22,09,47,9.70
2015,04,22,09,48,9.70
2015,04,22,09,49,9.70
2015,04,22,09,50,9.70
2015,04,22,09,51,9.60
2015,04,22,09,52,9.60
2015,04,22,09,53,9.60
2015,04,22,09,54,9.60
2015,04,22,09,55,9.70
2015,04,22,09,56,9.70
2015,04,22,09,57,9.70
2015,04,22,09,58,9.70
2015,04,22,09,59,9.80
2015,04,22,10,00,9.90
2015,04,22,10,01,9.90
2015,04,22,10,02,9.90
2015,04,22,10,03,9.90
2015,04,22,10,04,9.90
2015,04,22,10,05,9.90
2015,04,22,10,06,9.90
2015,04,22,10,07,9.90
2015,04,22,10,08,9.90
2015,04,22,10,09,9.90
2015,04,22,10,10,9.90
2015,04,22,10,11,9.90
2015,04,22,10,12,9.90
2015,04,22,10,13,10.00
2015,04,22,10,14,10.10
2015,04,22,10,15,10.10
2015,04,22,10,16,10.20
2015,04,22,10,17,10.20
2015,04,22,10,18,10.20
2015,04,22,10,19,10.20
2015,04,22,10,20,10.20
2015,04,22,10,21,10.20
2015,04,22,10,22,10.20
2015,04,22,10,23,10.20
2015,04,22,10,24,10.30
2015,04,22,10,25,10.30
2015,04,22,10,26,10.30
2015,04,22,10,27,10.30
2015,04,22,10,28,10.30
2015,04,22,10,29,10.30
2015,04,22,10,30,10.30
2015,04,22,10,31,10.30
2015,04,22,10,32,10.40
2015,04,22,10,33,10.40
2015,04,22,10,34,10.40
2015,04,22,10,35,10.40
2015,04,22,10,36,10.40
2015,04,22,10,37,10.40
2015,04,22,10,38,10.40
2015,04,22,10,39,10.40
2015,04,22,10,40,10.40
2015,04,22,10,41,10.40
2015,04,22,10,42,10.40
2015,04,22,10,43,10.30
2015,04,22,10,44,10.30
2015,04,22,10,45,10.40
2015,04,22,10,46,10.30
2015,04,22,10,47,10.30
2015,04,22,10,48,10.30
2015,04,22,10,49,10.30
2015,04,22,10,50,10.30
2015,04,22,10,51,10.40
2015,04,22,10,52,10.50
2015,04,22,10,53,10.60
2015,04,22,10,54,10.70
2015,04,22,10,55,10.70
2015,04,22,10,56,10.80
2015,04,22,10,57,10.80
2015,04,22,10,58,10.90
2015,04,22,10,59,10.90
2015,04,22,11,00,10.90
2015,04,22,11,01,10.90
2015,04,22,11,02,10.90
2015,04,22,11,03,10.90
2015,04,22,11,04,10.90
2015,04,22,11,05,10.90
2015,04,22,11,06,11.00
2015,04,22,11,07,11.00
2015,04,22,11,08,11.10
2015,04,22,11,09,11.10
2015,04,22,11,10,11.10
2015,04,22,11,11,11.10
2015,04,22,11,12,11.10
2015,04,22,11,13,11.20
2015,04,22,11,14,11.30
2015,04,22,11,15,11.30
2015,04,22,11,16,11.30
2015,04,22,11,17,11.30
2015,04,22,11,18,11.30
2015,04,22,11,19,11.30
2015,04,22,11,20,11.30
2015,04,22,11,21,11.30
2015,04,22,11,22,11.30
2015,04,22,11,23,11.30
2015,04,22,11,24,11.30
2015,04,22,11,25,11.30
2015,04,22,11,26,11.30
2015,04,22,11,27,11.30
2015,04,22,11,28,11.30
2015,04,22,11,29,11.40
2015,04,22,11,30,11.40
2015,04,22,11,31,11.50
2015,04,22,11,32,11.50
2015,04,22,11,33,11.50
2015,04,22,11,34,11.40
2015,04,22,11,35,11.40
2015,04,22,11,36,11.40
2015,04,22,11,37,11.40
2015,04,22,11,38,11.40
2015,04,22,11,39,11.40
2015,04,22,11,40,11.40
2015,04,22,11,41,11.40
2015,04,22,11,42,11.40
2015,04,22,11,43,11.50
2015,04,22,11,44,11.50
2015,04,22,11,45,11.50
2015,04,22,11,46,11.50
2015,04,22,11,47,11.50
2015,04,22,11,48,11.50
2015,04,22,11,49,11.50
2015,04,22,11,50,11.50
2015,04,22,11,51,11.50
2015,04,22,11,52,11.60
2015,04,22,11,53,11.60
2015,04,22,11,54,11.60
2015,04,22,11,55,11.60
2015,04,22,11,56,11.70
2015,04,22,11,57,11.60
2015,04,22,11,58,11.60
2015,04,22,11,59,11.60
2015,04,22,12,00,11.60
2015,04,22,12,01,11.60
2015,04,22,12,02,11.60
2015,04,22,12,03,11.60
2015,04,22,12,04,11.60
2015,04,22,12,05,11.60
2015,04,22,12,06,11.70
2015,04,22,12,07,11.70
2015,04,22,12,08,11.70
2015,04,22,12,09,11.70
2015,04,22,12,10,11.70
2015,04,22,12,11,11.70
2015,04,22,12,12,11.70
2015,04,22,12,13,11.70
2015,04,22,12,14,11.80
2015,04,22,12,15,11.80
2015,04,22,12,16,11.90
2015,04,22,12,17,11.90
2015,04,22,12,18,12.00
2015,04,22,12,19,12.10
2015,04,22,12,20,12.20
2015,04,22,12,21,12.20
2015,04,22,12,22,12.10
2015,04,22,12,23,12.10
2015,04,22,12,24,12.10
2015,04,22,12,25,12.10
2015,04,22,12,26,12.00
2015,04,22,12,27,12.00
2015,04,22,12,28,11.90
2015,04,22,12,29,11.90
2015,04,22,12,30,11.90
2015,04,22,12,31,11.90
2015,04,22,12,32,11.90
2015,04,22,12,33,12.00
2015,04,22,12,34,12.00
2015,04,22,12,35,12.00
2015,04,22,12,36,12.10
2015,04,22,12,37,12.10
2015,04,22,12,38,12.10
2015,04,22,12,39,12.10
2015,04,22,12,40,12.10
2015,04,22,12,41,12.10
2015,04,22,12,42,12.10
2015,04,22,12,43,12.10
2015,04,22,12,44,12.00
2015,04,22,12,45,12.00
2015,04,22,12,46,11.90
2015,04,22,12,47,11.90
2015,04,22,12,48,11.90
2015,04,22,12,49,11.90
2015,04,22,12,50,11.90
2015,04,22,12,51,11.90
2015,04,22,12,52,12.00
2015,04,22,12,53,12.10
2015,04,22,12,54,12.20
2015,04,22,12,55,12.30
2015,04,22,12,56,12.40
2015,04,22,12,57,12.50
2015,04,22,12,58,12.60
2015,04,22,12,59,12.60
2015,04,22,13,00,12.60
2015,04,22,13,01,12.50
2015,04,22,13,02,12.50
2015,04,22,13,03,12.50
2015,04,22,13,04,12.40
2015,04,22,13,05,12.30
2015,04,22,13,06,12.30
2015,04,22,13,07,12.30
2015,04,22,13,08,12.40
2015,04,22,13,09,12.40
2015,04,22,13,10,12.50
2015,04,22,13,11,12.60
2015,04,22,13,12,12.60
2015,04,22,13,13,12.70
2015,04,22,13,14,12.70
2015,04,22,13,15,12.70
2015,04,22,13,16,12.70
2015,04,22,13,17,12.70
2015,04,22,13,18,12.80
2015,04,22,13,19,12.80
2015,04,22,13,20,12.80
2015,04,22,13,21,12.80
2015,04,22,13,22,12.80
2015,04,22,13,23,12.80
2015,04,22,13,24,12.80
2015,04,22,13,25,12.80
2015,04,22,13,26,12.90
2015,04,22,13,27,13.00
2015,04,22,13,28,13.10
2015,04,22,13,29,13.10
2015,04,22,13,30,13.10
2015,04,22,13,31,13.00
2015,04,22,13,32,12.90
2015,04,22,13,33,13.00
2015,04,22,13,34,13.00
2015,04,22,13,35,13.00
2015,04,22,13,36,12.90
2015,04,22,13,37,12.90
2015,04,22,13,38,12.90
2015,04,22,13,39,12.90
2015,04,22,13,40,13.00
2015,04,22,13,41,13.10
2015,04,22,13,42,13.10
2015,04,22,13,43,13.20
2015,04,22,13,44,13.10
2015,04,22,13,45,13.10
2015,04,22,13,46,13.10
2015,04,22,13,47,13.10
2015,04,22,13,48,13.10
2015,04,22,13,49,13.00
2015,04,22,13,50,12.90
2015,04,22,13,51,13.00
2015,04,22,13,52,13.20
2015,04,22,13,53,13.20
2015,04,22,13,54,13.20
2015,04,22,13,55,13.10
2015,04,22,13,56,13.00
2015,04,22,13,57,12.90
2015,04,22,13,58,12.80
2015,04,22,13,59,12.80
2015,04,22,14,00,12.80
2015,04,22,14,01,12.70
2015,04,22,14,02,12.70
2015,04,22,14,03,12.70
2015,04,22,14,04,12.70
2015,04,22,14,05,12.70
2015,04,22,14,06,12.80
2015,04,22,14,07,12.80
2015,04,22,14,08,12.90
2015,04,22,14,09,12.90
2015,04,22,14,10,12.90
2015,04,22,14,11,12.90
2015,04,22,14,12,12.90
2015,04,22,14,13,12.90
2015,04,22,14,14,13.00
2015,04,22,14,15,13.10
2015,04,22,14,16,13.20
2015,04,22,14,17,13.30
2015,04,22,14,18,13.40
2015,04,22,14,19,13.40
2015,04,22,14,20,13.40
2015,04,22,14,21,13.50
2015,04,22,14,22,13.60
2015,04,22,14,23,13.50
2015,04,22,14,24,13.30
2015,04,22,14,25,13.20
2015,04,22,14,26,13.10
2015,04,22,14,27,13.10
2015,04,22,14,28,13.10
2015,04,22,14,29,13.10
2015,04,22,14,30,13.10
2015,04,22,14,31,13.10
2015,04,22,14,32,13.10
2015,04,22,14,33,13.10
2015,04,22,14,34,13.10
2015,04,22,14,35,13.00
2015,04,22,14,36,13.00
2015,04,22,14,37,13.00
2015,04,22,14,38,13.00
2015,04,22,14,39,13.00
2015,04,22,14,40,13.00
2015,04,22,14,41,13.00
2015,04,22,14,42,13.20
2015,04,22,14,43,13.30
2015,04,22,14,44,13.30
2015,04,22,14,45,13.30
2015,04,22,14,46,13.40
2015,04,22,14,47,13.50
2015,04,22,14,48,13.60
2015,04,22,14,49,13.60
2015,04,22,14,50,13.50
2015,04,22,14,51,13.40
2015,04,22,14,52,13.20
2015,04,22,14,53,13.20
2015,04,22,14,54,13.20
2015,04,22,14,55,13.20
2015,04,22,14,56,13.20
2015,04,22,14,57,13.20
2015,04,22,14,58,13.30
2015,04,22,14,59,13.30
2015,04,22,15,00,13.30
2015,04,22,15,01,13.40
2015,04,22,15,02,13.50
2015,04,22,15,03,13.60
2015,04,22,15,04,13.70
2015,04,22,15,05,13.60
2015,04,22,15,06,13.50
2015,04,22,15,07,13.40
2015,04,22,15,08,13.40
2015,04,22,15,09,13.50
2015,04,22,15,10,13.60
2015,04,22,15,11,13.70
2015,04,22,15,12,13.70
2015,04,22,15,13,13.60
2015,04,22,15,14,13.60
2015,04,22,15,15,13.50
2015,04,22,15,16,13.50
2015,04,22,15,17,13.40
2015,04,22,15,18,13.30
2015,04,22,15,19,13.20
2015,04,22,15,20,13.20
2015,04,22,15,21,13.10
2015,04,22,15,22,13.00
2015,04,22,15,23,13.00
2015,04,22,15,24,13.20
2015,04,22,15,25,13.30
2015,04,22,15,26,13.50
2015,04,22,15,27,13.60
2015,04,22,15,28,13.60
2015,04,22,15,29,13.60
2015,04,22,15,30,13.60
2015,04,22,15,31,13.60
2015,04,22,15,32,13.70
2015,04,22,15,33,13.80
2015,04,22,15,34,13.90
2015,04,22,15,35,14.00
2015,04,22,15,36,14.10
2015,04,22,15,37,14.10
2015,04,22,15,38,13.90
2015,04,22,15,39,13.80
2015,04,22,15,40,13.70
2015,04,22,15,41,13.60
2015,04,22,15,42,13.30
2015,04,22,15,43,13.20
2015,04,22,15,44,13.20
2015,04,22,15,45,13.10
2015,04,22,15,46,13.00
2015,04,22,15,47,13.00
2015,04,22,15,48,13.00
2015,04,22,15,49,13.00
2015,04,22,15,50,12.90
2015,04,22,15,51,12.80
2015,04,22,15,52,12.80
2015,04,22,15,53,12.70
2015,04,22,15,54,12.70
2015,04,22,15,55,12.70
2015,04,22,15,56,12.70
2015,04,22,15,57,12.60
2015,04,22,15,58,12.60
2015,04,22,15,59,12.60
2015,04,22,16,00,12.60
2015,04,22,16,01,12.50
2015,04,22,16,02,12.50
2015,04,22,16,03,12.40
2015,04,22,16,04,12.40
2015,04,22,16,05,12.40
2015,04,22,16,06,12.40
2015,04,22,16,07,12.40
2015,04,22,16,08,12.40
2015,04,22,16,09,12.40
2015,04,22,16,10,12.40
2015,04,22,16,11,12.40
2015,04,22,16,12,12.40
2015,04,22,16,13,12.30
2015,04,22,16,14,12.30
2015,04,22,16,15,12.20
2015,04,22,16,16,12.20
2015,04,22,16,17,12.20
2015,04,22,16,18,12.20
2015,04,22,16,19,12.20
2015,04,22,16,20,12.20
2015,04,22,16,21,12.20
2015,04,22,16,22,12.20
2015,04,22,16,23,12.10
2015,04,22,16,24,12.20
2015,04,22,16,25,12.20
2015,04,22,16,26,12.20
2015,04,22,16,27,12.20
2015,04,22,16,28,12.20
2015,04,22,16,29,12.20
2015,04,22,16,30,12.20
2015,04,22,16,31,12.20
2015,04,22,16,32,12.10
2015,04,22,16,33,12.00
2015,04,22,16,34,12.00
2015,04,22,16,35,12.00
2015,04,22,16,36,12.00
2015,04,22,16,37,12.00
2015,04,22,16,38,12.00
2015,04,22,16,39,12.10
2015,04,22,16,40,12.20
2015,04,22,16,41,12.20
2015,04,22,16,42,12.20
2015,04,22,16,43,12.20
2015,04,22,16,44,12.30
2015,04,22,16,45,12.30
2015,04,22,16,46,12.20
2015,04,22,16,47,12.20
2015,04,22,16,48,12.20
2015,04,22,16,49,12.10
2015,04,22,16,50,12.10
2015,04,22,16,51,12.10
2015,04,22,16,52,12.10
2015,04,22,16,53,12.10
2015,04,22,16,54,12.10
2015,04,22,16,55,12.10
2015,04,22,16,56,12.20
2015,04,22,16,57,12.20
2015,04,22,16,58,12.20
2015,04,22,16,59,12.10
2015,04,22,17,00,12.10
2015,04,22,17,01,12.10
2015,04,22,17,02,12.10
2015,04,22,17,03,12.10
2015,04,22,17,04,12.10
2015,04,22,17,05,12.10
2015,04,22,17,06,12.10
2015,04,22,17,07,12.10
2015,04,22,17,08,12.10
2015,04,22,17,09,12.10
2015,04,22,17,10,12.10
2015,04,22,17,11,12.20
2015,04,22,17,12,12.20
2015,04,22,17,13,12.20
2015,04,22,17,14,12.30
2015,04,22,17,15,12.30
2015,04,22,17,16,12.50
2015,04,22,17,17,12.50
2015,04,22,17,18,12.60
2015,04,22,17,19,12.60
2015,04,22,17,20,12.60
2015,04,22,17,21,12.70
2015,04,22,17,22,12.70
2015,04,22,17,23,12.80
2015,04,22,17,24,12.90
2015,04,22,17,25,12.90
2015,04,22,17,26,12.90
2015,04,22,17,27,12.80
2015,04,22,17,28,12.90
2015,04,22,17,29,13.00
2015,04,22,17,30,13.00
2015,04,22,17,31,13.00
2015,04,22,17,32,13.00
2015,04,22,17,33,13.00
2015,04,22,17,34,12.90
2015,04,22,17,35,12.90
2015,04,22,17,36,12.90
2015,04,22,17,37,12.90
2015,04,22,17,38,12.90
2015,04,22,17,39,12.90
2015,04,22,17,40,12.90
2015,04,22,17,41,12.80
2015,04,22,17,42,12.80
2015,04,22,17,43,12.80
2015,04,22,17,44,12.80